Terminal Aerodrome Forecast
Issued by NWS Flagstaff, AZ

Home | Current Version | Previous Version | Text Only | Print | Product List | Glossary On
Versions: 1 2 3 4 5 6 7 8 9 10 11 12 13 14 15 16
000
FTUS45 KFGZ 242300
TAFINW
TAF
KINW 242320Z 2500/2524 25010G18KT P6SM SCT250
     FM250200 VRB04KT P6SM FEW250
     FM251600 20014G24KT P6SM FEW250
     FM252000 21025G35KT P6SM FEW250=

USA.gov is the U.S. government's official web portal to all federal, state and local government web resources and services.